User: anonymous   Login
Location: Irma
(52.9170°N, 111.2330°W)
Time: 10:29:37
(UTC-06:00)
Language:

Cosmos 1633 Rocket - Orbit

View from above orbital plane
View from above orbital plane
View from above satellite
View from above satellite

Ground track
Ground track

The orbit data is extracted from the following two-line orbital elements,

1 15593U 85020B   15150.36723090  .00000196  00000-0  20624-4 0  9994
2 15593 082.5393 243.2718 0011558 000.7745 065.1510 14.84052525633304
Epoch (UTC): 30 May 2015 08:48:48
Eccentricity: 0.0011558
inclination: 82.5393°
perigee height: 608 km
apogee height: 624 km
right ascension of ascending node: 243.2718°
argument of perigee: 0.7745°
revolutions per day: 14.84052525
mean anomaly at epoch: 65.1510°
orbit number at epoch: 63330

The dashed part of the orbit path shows where the satellite is in the earth's shadow,  

DLR